ギブス彗星

P/2014 W12 ( Gibbs )

English version
Home page
Updated on June 11, 2016

---------------------------------------------------------------------

・ プロフィール

発見日 2014年11月30日
発見光度 18.3等
発見者 A. R. Gibbs (Mount Lemmon)

・ 写真集

・ 軌道要素

Epoch 2014 Oct. 30.0 TT = JDT 2456960.5
T 2014 Nov. 15.15253 TT                                 MPCW
q   1.6760133            (2000.0)            P               Q
n   0.14923657     Peri.   37.01432     +0.90978062     +0.39449209
a   3.5200801      Node   299.27201     -0.40740573     +0.78905034
e   0.5238707      Incl.    8.51309     -0.07949714     +0.47093051
P   6.60
From 67 observations 2014 Nov. 30-2015 Jan. 7, mean residual 0".5.

・ 光度変化

        m1 = 14.0 + 5 logΔ + 10.0 log r

---------------------------------------------------------------------

軌道要素はM.P.E.C. 2015-G03に掲載されたものです。
光度グラフはComet for Windowsで作成したものです。

---------------------------------------------------------------------

Copyright(C) Seiichi Yoshida (comet@aerith.net). All rights reserved.